Regional Weather Roundup
Issued by NWS Boston, MA

Current Version | Previous Version | Text Only | Print | Product List | Glossary Off
Versions: 1 2 3 4 5 6 7 8 9 10 11 12 13 14 15 16 17 18 19 20 21 22 23 24 25 26 27
000 ASUS41 KBOX 240710 RWRBOX REGIONAL WEATHER ROUNDUP NATIONAL WEATHER SERVICE TAUNTON MA 300 AM EDT FRI OCT 24 2014 NOTE: "FAIR" INDICATES FEW OR NO CLOUDS BELOW 12,000 FEET WITH NO SIGNIFICANT WEATHER AND/OR OBSTRUCTIONS TO VISIBILITY. THE FOLLOWING OBSERVATION LOCATIONS DO NOT REPORT PRESENT WEATHER...PROVINCETOWN... SMITHFIELD...BLOCK ISLAND...KEENE...AND OXFORD. MAZALL-240800- EASTERN MASSACHUSETTS CITY SKY/WX TMP DP RH WIND PRES REMARKS BOSTON CLOUDY 48 48 100 NW13G18 29.66S BEVERLY LGT RAIN 49 46 90 N12 29.64F FOG LAWRENCE LGT RAIN 49 47 93 N8 29.69S BEDFORD LGT RAIN 49 47 93 NW7 29.66F BLUE HILL N/A 47 47 100 NW14 29.64S NORWOOD RAIN 49 48 97 NW8 29.66S FOG MARSHFIELD NOT AVBL PLYMOUTH LGT RAIN 50 49 96 N14G23 29.63R FOG TAUNTON CLOUDY 50 48 93 N12 29.64S FOG NEW BEDFORD LGT RAIN 50 50 100 N9G20 29.61S FOG $$ MAZALL-240800- CAPE COD AND THE ISLANDS CITY SKY/WX TMP DP RH WIND PRES REMARKS FALMOUTH CLOUDY 52 50 93 N16G28 29.59S FOG HYANNIS LGT RAIN 54 52 93 N18G30 29.55R FOG CHATHAM LGT RAIN 52 52 100 VRB7G16 29.55R FOG PROVINCETOWN CLOUDY 52 0 11 N18G31 29.59R NANTUCKET LGT RAIN 55 53 93 N21G29 29.54R FOG MARTHAS VNYRD CLOUDY 52 51 97 N21G28 29.58S $$ MAZALL-240800- CENTRAL AND WESTERN MASSACHUSETTS CITY SKY/WX TMP DP RH WIND PRES REMARKS WORCESTER LGT RAIN 48 46 93 N10 29.68F FOG FITCHBURG LGT RAIN 51 47 86 NW8 29.71S ORANGE CLOUDY 48 45 89 NW13 29.72F SPRINGFIELD CLOUDY 50 46 87 N10 29.72S WESTFIELD LGT RAIN 50 45 83 NW12 29.73S NORTH ADAMS CLOUDY 44 42 93 W8 29.79S PITTSFIELD LGT RAIN 43 41 93 VRB5 29.76F $$ RIZALL-240800- RHODE ISLAND CITY SKY/WX TMP DP RH WIND PRES REMARKS PROVIDENCE CLOUDY 51 48 89 N13 29.66S NEWPORT LGT RAIN 52 48 86 N16G24 29.63S BLOCK ISLAND CLOUDY 52 46 82 N13G21 29.65R SMITHFIELD CLOUDY 48 41 76 N10G20 29.66S WESTERLY MOCLDY 52 48 86 N9 29.66F $$ CTZALL-240800- CONNECTICUT CITY SKY/WX TMP DP RH WIND PRES REMARKS BRADLEY INTL CLOUDY 50 46 86 NW10 29.72S HARTFORD LGT RAIN 51 46 83 VRB6 29.72S BRIDGEPORT CLOUDY 51 45 79 N13G23 29.72S DANBURY CLOUDY 48 43 82 N8 29.77S GROTON CLOUDY 50 48 93 NW13 29.66S NEW HAVEN CLOUDY 52 45 77 VRB7 29.71S CHESTER NOT AVBL MERIDEN LGT RAIN 50 44 80 NW12G21 29.72S WILLIMANTIC CLOUDY 51 47 86 N7 29.70S OXFORD CLOUDY 46 39 76 N16 29.74S $$ MEZ002-015-021-024-NHZ003-005-008-011-012-014-VTZ005-008-240800- NORTHERN NEW ENGLAND CITY SKY/WX TMP DP RH WIND PRES REMARKS PORTLAND ME RAIN 49 47 93 N15 29.67F FOG BANGOR ME LGT RAIN 47 45 93 N12 29.71R CONCORD NH LGT RAIN 49 48 97 N6 29.70F MANCHESTER NH LGT RAIN 49 46 90 N8 29.68F FOG NASHUA NH LGT RAIN 50 48 93 N8 29.69F FOG PORTSMOUTH NH LGT RAIN 49 46 90 N14G21 29.65F JAFFREY NH CLOUDY 47 45 93 VRB3 29.71F FOG KEENE NH CLOUDY 48 39 71 N8 29.73F BURLINGTON VT LGT RAIN 43 40 89 N13 29.84S FOG MT. WASHINGTON FRZ DRZL 32 32 100 NE32 N/A VSB 1/16WCI 17 $$ NYZ052-076-240800- EASTERN NEW YORK CITY SKY/WX TMP DP RH WIND PRES REMARKS ALBANY LGT RAIN 46 44 93 N5 29.83F FOG NEW YORK CITY CLOUDY 52 44 74 NW12 29.76S $$ ANZALL-240800- MARINE OBSERVATIONS STATION/POSITION TIME TEMP WIND PRES VSBY WAVE AIR SEA DIR/SP/G HT/PER (UTC) (F) (DEG/KT/KT) (MB) (MI) (FT/S) BOSTON BUOY NOT AVBL BUZZARDS BAY NOT AVBL NANTUCKET SOUND NOT AVBL MASS BAY-STELLWA NOT AVBL ISLE OF SHOALS NOT AVBL S OF BLOCK IS NOT AVBL $$ ......................KEY......................... SKY/WX - SKY CONDITION/PRESENT WEATHER TMP - TEMPERATURE IN FAHRENHEIT DWPT - DEWPOINT IN FAHRENHEIT RH - RELATIVE HUMIDITY IN PERCENT WIND - DIRECTION AND SPEED IN MPH PRES - MEAN SEA LEVEL PRESSURE IN INCHES OF HG WCI - WIND CHILL INDEX VSB - VISIBILITY IN MILES HX - HEAT INDEX TC - TEMPERATURE IN CELSIUS VRB - VARIABLE WIND DIRECTION N/A - NOT AVAILABLE

USA.gov is the U.S. government's official web portal to all federal, state and local government web resources and services.